TimeEDT,TemperatureF,Dew PointF,Humidity,Sea Level PressureIn,VisibilityMPH,Wind Direction,Wind SpeedMPH,Gust SpeedMPH,PrecipitationIn,Events,Conditions,WindDirDegrees,DateUTC
12:51 AM,57.9,50.0,75,30.04,10.0,East,6.9,-,N/A,,Mostly Cloudy,100,2013-05-07 04:51:00
1:51 AM,55.9,50.0,80,30.03,10.0,East,8.1,-,N/A,,Overcast,100,2013-05-07 05:51:00
2:51 AM,55.0,48.9,80,30.01,10.0,East,6.9,-,N/A,,Mostly Cloudy,90,2013-05-07 06:51:00
3:51 AM,55.0,50.0,83,30.01,10.0,East,8.1,-,N/A,,Mostly Cloudy,90,2013-05-07 07:51:00
4:51 AM,54.0,48.9,83,30.01,10.0,East,9.2,-,N/A,,Mostly Cloudy,90,2013-05-07 08:51:00
5:51 AM,53.1,48.9,86,30.01,10.0,East,9.2,-,N/A,,Mostly Cloudy,90,2013-05-07 09:51:00
6:51 AM,54.0,50.0,86,30.02,10.0,East,8.1,-,N/A,,Mostly Cloudy,90,2013-05-07 10:51:00
7:51 AM,55.9,51.1,84,30.03,10.0,East,9.2,-,N/A,,Mostly Cloudy,90,2013-05-07 11:51:00
8:51 AM,60.1,52.0,75,30.04,10.0,East,9.2,-,N/A,,Mostly Cloudy,80,2013-05-07 12:51:00
9:51 AM,62.1,52.0,70,30.05,10.0,East,12.7,-,N/A,,Overcast,80,2013-05-07 13:51:00
10:51 AM,66.0,53.1,63,30.04,10.0,ENE,8.1,-,N/A,,Overcast,70,2013-05-07 14:51:00
12:51 PM,70.0,52.0,53,30.03,10.0,ESE,11.5,18.4,N/A,,Overcast,110,2013-05-07 16:51:00
1:51 PM,73.0,51.1,46,30.01,10.0,East,9.2,20.7,N/A,,Overcast,90,2013-05-07 17:51:00
2:51 PM,73.0,50.0,44,29.99,10.0,ESE,10.4,19.6,N/A,,Overcast,120,2013-05-07 18:51:00
3:51 PM,73.0,48.9,42,29.98,10.0,Variable,6.9,18.4,N/A,,Overcast,0,2013-05-07 19:51:00
4:51 PM,71.1,48.9,45,29.97,10.0,ESE,9.2,-,N/A,,Overcast,120,2013-05-07 20:51:00
5:51 PM,63.0,55.9,78,29.98,10.0,SSE,3.5,-,0.01,Rain,Light Rain,150,2013-05-07 21:51:00
6:51 PM,68.0,57.0,68,29.98,10.0,Calm,Calm,-,0.00,,Overcast,0,2013-05-07 22:51:00
7:51 PM,66.0,53.1,63,29.99,10.0,SSE,5.8,-,N/A,,Overcast,160,2013-05-07 23:51:00
8:51 PM,64.0,53.1,67,29.99,10.0,Calm,Calm,-,N/A,,Mostly Cloudy,0,2013-05-08 00:51:00
9:51 PM,62.1,53.1,72,30.01,10.0,NE,4.6,-,N/A,,Overcast,40,2013-05-08 01:51:00
10:51 PM,61.0,53.1,75,30.00,10.0,Variable,4.6,-,N/A,,Overcast,0,2013-05-08 02:51:00
11:51 PM,59.0,54.0,83,30.00,10.0,ENE,3.5,-,N/A,,Overcast,70,2013-05-08 03:51:00